Location: Carnoy
(49.9849°N, 2.7558°E)
Time: 13:18:09
(UTC+00:00)

STARLINK-1074 - Pass Details

Date: 24 January 2020
Orbit: 348 x 351 km, 53.0° (Epoch: 28 February)

Event Time Altitude Azimuth Distance (km) Brightness Sun altitude
Rises 17:02:38 0° 262° (W) 2,169 8.6 -5.7°
Reaches altitude 10° 17:04:40 10° 266° (W) 1,327 7.0 -6.0°
Maximum altitude 17:07:35 56° 347° (NNW) 428 3.0 -6.4°
Drops below altitude 10° 17:10:30 10° 67° (ENE) 1,329 4.9 -6.9°
Enters shadow 17:10:37 - 67° (ENE) 1,379 5.0 -6.9°
